1489230001.18,18821,7.38,73230.3,-0.85,-32.75,-33.09,0,*65
1489230002.38,18822,7.38,73224.8,-0.81,-33.67,-33.95,0,*65
1489230003.62,18823,7.38,73226.5,-0.81,-34.77,-35.23,0,*69
1489230004.83,18824,7.38,73226.0,-0.81,-35.47,-35.89,0,*6C
1489230006.04,18825,7.38,73228.0,-0.81,-36.19,-36.55,0,*67
1489230007.29,18826,7.38,73226.8,-0.85,-34.95,-35.17,0,*63
1489230008.52,18827,7.38,73228.0,-0.83,-34.41,-34.59,0,*66
1489230009.75,18828,7.38,73224.0,-0.79,-35.59,-36.01,0,*6B
1489230011.0,18829,7.38,73226.8,-0.85,-36.31,-36.61,0,*62
1489230012.28,18830,7.38,73228.8,-0.85,-36.25,-36.49,0,*65
1489230013.49,18831,7.38,73234.8,-0.85,-35.13,-35.17,0,*6A
1489230014.72,18832,7.38,73232.8,-0.83,-33.95,-34.13,0,*62
1489230015.97,18833,7.38,73232.0,-0.85,-34.31,-34.59,0,*62
1489230017.21,18834,7.38,73232.3,-0.85,-33.83,-34.19,0,*6F
1489230018.5,18835,7.38,73230.5,-0.83,-34.53,-34.95,0,*66
1489230019.78,18836,7.38,73232.5,-0.83,-35.35,-35.65,0,*6A
1489230021.05,18837,7.38,73236.5,-0.83,-35.07,-35.29,0,*62
1489230022.29,18838,7.38,73232.5,-0.81,-34.71,-34.95,0,*69
1489230023.51,18839,7.38,73238.0,-0.81,-34.13,-34.19,0,*68
1489230024.76,18840,7.38,73232.3,-0.81,-34.19,-34.35,0,*62
1489230026.04,18841,7.38,73234.8,-0.79,-33.61,-33.89,0,*6C
1489230027.29,18842,7.38,73236.3,-0.79,-33.27,-33.37,0,*68
1489230028.52,18843,7.38,73228.8,-0.77,-33.27,-33.55,0,*63
1489230029.75,18844,7.38,73234.3,-0.77,-33.09,-33.37,0,*6C
1489230030.97,18845,7.38,73226.5,-0.75,-33.67,-33.83,0,*68
1489230032.21,18846,7.38,73228.0,-0.75,-34.47,-34.77,0,*62
1489230033.44,18847,7.38,73224.3,-0.73,-34.25,-34.65,0,*62
1489230034.63,18848,7.38,73224.8,-0.73,-34.25,-34.41,0,*6B
1489230035.85,18849,7.38,73224.5,-0.71,-34.41,-34.89,0,*6E
1489230037.07,18850,7.38,73222.3,-0.73,-35.41,-35.77,0,*65
1489230038.3,18851,7.38,73226.3,-0.73,-35.41,-35.77,0,*64
1489230039.52,18852,7.38,73222.3,-0.73,-35.01,-35.23,0,*62
1489230040.77,18853,7.38,73222.5,-0.71,-35.07,-35.17,0,*60
1489230042.0,18854,7.38,73222.8,-0.73,-34.31,-34.59,0,*6A
1489230043.22,18855,7.38,73220.8,-0.73,-34.13,-34.31,0,*65
1489230044.42,18856,7.38,73220.8,-0.73,-34.07,-34.25,0,*66
1489230045.64,18857,7.38,73224.8,-0.73,-33.83,-34.01,0,*6A
1489230046.9,18858,7.38,73224.8,-0.71,-34.35,-34.71,0,*6A
1489230048.14,18859,7.38,73224.3,-0.69,-33.61,-33.77,0,*65
1489230049.34,18860,7.38,73230.0,-0.69,-35.13,-35.47,0,*69
1489230050.54,18861,7.38,73228.8,-0.69,-36.67,-37.33,0,*69
1489230051.8,18862,7.38,73230.8,-0.73,-36.91,-37.39,0,*62
1489230053.05,18863,7.38,73230.8,-0.73,-34.31,-34.65,0,*61
1489230054.3,18864,7.38,73232.3,-0.71,-35.89,-36.37,0,*63
1489230055.52,18865,7.38,73228.8,-0.73,-35.35,-36.07,0,*64
1489230056.77,18866,7.38,73236.0,-0.73,-36.25,-36.49,0,*6F
1489230057.97,18867,7.38,73238.0,-0.73,-35.01,-35.17,0,*63
1489230059.17,18868,7.38,73236.3,-0.73,-36.43,-36.73,0,*68
1489230060.41,18869,7.38,73238.8,-0.73,-35.23,-35.23,0,*6A
1489230061.69,18870,7.38,73242.0,-0.71,-35.83,-36.37,0,*6C
1489230062.91,18871,7.38,73236.0,-0.73,-36.91,-37.45,0,*6B
1489230064.16,18872,7.38,73234.8,-0.75,-37.57,-37.99,0,*64
1489230065.38,18873,7.38,73236.0,-0.77,-37.69,-38.05,0,*60
1489230066.62,18874,7.38,73238.8,-0.81,-37.21,-37.75,0,*6A
1489230067.85,18875,7.38,73242.3,-0.81,-37.69,-38.17,0,*6C
1489230069.11,18876,7.38,73240.8,-0.83,-37.99,-38.35,0,*62
1489230070.36,18877,7.38,73242.3,-0.85,-37.99,-38.61,0,*64
1489230071.58,18878,7.38,73242.3,-0.85,-37.27,-37.75,0,*64
1489230072.84,18879,7.38,73242.5,-0.89,-37.51,-37.87,0,*65
1489230074.07,18880,7.38,73238.5,-0.91,-36.37,-36.73,0,*61
1489230075.27,18881,7.38,73236.5,-0.91,-36.97,-37.45,0,*6E
1489230076.47,18882,7.38,73236.8,-0.91,-36.73,-37.15,0,*62
1489230077.7,18883,7.38,73238.8,-0.93,-36.73,-36.97,0,*6A
1489230078.91,18884,7.38,73230.0,-0.91,-36.19,-36.43,0,*6A
1489230080.11,18885,7.38,73224.3,-0.91,-35.59,-36.01,0,*6A
1489230081.37,18886,7.38,73222.0,-0.93,-34.77,-35.07,0,*63
1489230082.62,18887,7.38,73220.8,-0.93,-34.31,-34.59,0,*6A
1489230083.85,18888,7.38,73216.8,-0.91,-35.17,-35.41,0,*6A
1489230085.08,18889,7.38,73214.3,-0.91,-34.47,-34.65,0,*68
1489230086.31,18890,7.38,73216.8,-0.91,-36.55,-36.91,0,*68
1489230087.52,18891,7.38,73214.3,-0.91,-36.73,-36.97,0,*6B
1489230088.74,18892,7.38,73212.3,-0.91,-35.47,-35.65,0,*62
1489230089.97,18893,7.38,73210.8,-0.91,-35.47,-35.83,0,*6B
1489230091.22,18894,7.38,73208.5,-0.89,-34.13,-34.31,0,*6D
1489230092.47,18895,7.38,73208.5,-0.89,-33.03,-33.09,0,*66
1489230093.69,18896,7.38,73212.5,-0.85,-32.57,-32.91,0,*69
1489230094.95,18897,7.38,73212.0,-0.83,-33.95,-34.01,0,*6E
1489230096.21,18898,7.38,73212.3,-0.79,-33.37,-33.61,0,*6D
1489230097.46,18899,7.38,73224.3,-0.81,-33.31,-33.61,0,*6D
1489230098.71,18900,7.38,73220.5,-0.79,-34.89,-35.07,0,*69
1489230099.96,18901,7.38,73218.0,-0.79,-35.23,-35.29,0,*65
1489230101.21,18902,7.38,73224.8,-0.79,-33.89,-34.07,0,*6D
1489230102.47,18903,7.38,73226.8,-0.75,-35.01,-35.23,0,*61
1489230103.72,18904,7.38,73222.8,-0.77,-34.31,-34.53,0,*60
1489230104.98,18905,7.38,73224.5,-0.75,-34.47,-34.83,0,*6F
1489230106.2,18906,7.38,73226.3,-0.75,-34.25,-34.41,0,*66
1489230107.45,18907,7.38,73224.0,-0.75,-34.13,-34.31,0,*65
1489230108.73,18908,7.38,73216.0,-0.75,-34.83,-34.95,0,*6D
1489230109.96,18909,7.38,73218.5,-0.75,-33.67,-33.83,0,*61
1489230111.24,18910,7.38,73224.5,-0.71,-32.75,-32.79,0,*6B
1489230112.47,18911,7.38,73220.8,-0.71,-32.57,-32.69,0,*6B
1489230113.7,18912,7.38,73220.5,-0.69,-32.57,-32.75,0,*6C
1489230114.95,18913,7.38,73222.0,-0.63,-32.23,-32.29,0,*6D
1489230116.18,18914,7.38,73222.5,-0.61,-33.21,-33.31,0,*63
1489230117.43,18915,7.38,73222.8,-0.61,-32.79,-32.97,0,*63
1489230118.71,18916,7.38,73220.3,-0.59,-31.73,-31.91,0,*67
1489230119.96,18917,7.38,73226.3,-0.57,-33.61,-33.77,0,*63
1489230121.21,18918,7.38,73220.8,-0.55,-33.73,-33.95,0,*61
1489230122.44,18919,7.38,73224.8,-0.55,-33.03,-33.21,0,*68
1489230123.69,18920,7.38,73218.5,-0.53,-33.09,-33.27,0,*68
1489230124.92,18921,7.38,73222.5,-0.51,-33.15,-33.21,0,*60
1489230126.17,18922,7.38,73226.5,-0.51,-33.31,-33.55,0,*66
1489230127.42,18923,7.38,73226.8,-0.51,-32.97,-33.03,0,*69
1489230128.66,18924,7.38,73224.5,-0.49,-33.49,-33.67,0,*67
1489230129.91,18925,7.38,73222.5,-0.45,-33.31,-33.49,0,*69
1489230131.13,18926,7.38,73222.0,-0.47,-32.23,-32.39,0,*6C
1489230132.39,18927,7.38,73218.8,-0.45,-31.73,-31.85,0,*6D
1489230133.64,18928,7.38,73216.3,-0.43,-31.61,-31.67,0,*6B
1489230134.89,18929,7.38,73220.8,-0.39,-31.29,-31.39,0,*60
1489230136.17,18930,7.38,73220.3,-0.35,-32.19,-32.19,0,*65
1489230137.44,18931,7.38,73226.8,-0.35,-32.29,-32.29,0,*64
1489230138.7,18932,7.38,73224.0,-0.35,-31.73,-32.01,0,*61
1489230139.93,18933,7.38,73222.0,-0.31,-31.79,-32.01,0,*6E
1489230141.15,18934,7.38,73220.5,-0.29,-32.35,-32.45,0,*6B
1489230142.4,18935,7.38,73218.8,-0.29,-32.45,-32.45,0,*6D
1489230143.66,18936,7.38,73226.5,-0.27,-31.39,-31.45,0,*6B
1489230144.89,18937,7.38,73222.3,-0.25,-31.01,-31.23,0,*63
1489230146.12,18938,7.38,73226.3,-0.21,-31.11,-31.29,0,*63
1489230147.35,18939,7.38,73224.8,-0.17,-32.35,-32.69,0,*65
1489230148.61,18940,7.38,73220.3,-0.17,-32.51,-32.75,0,*64
1489230149.84,18941,7.38,73222.0,-0.15,-31.79,-31.95,0,*63
1489230151.07,18942,7.38,73220.8,-0.15,-32.13,-32.29,0,*6B
1489230152.3,18943,7.38,73220.5,-0.13,-32.35,-32.69,0,*6C
1489230153.52,18944,7.38,73226.3,-0.11,-33.73,-34.07,0,*64
1489230154.75,18945,7.38,73222.0,-0.11,-32.97,-33.15,0,*6A
1489230156.0,18946,7.38,73220.0,-0.09,-32.07,-32.23,0,*5D
1489230157.25,18947,7.38,73222.5,-0.11,-31.91,-32.07,0,*6F
1489230158.48,18948,7.38,73222.3,-0.09,-32.23,-32.39,0,*5E
1489230159.7,18949,7.38,73226.5,-0.07,-32.19,-32.35,0,*54
1489230160.94,18950,7.38,73226.8,-0.05,-32.19,-32.35,0,*5E
1489230162.22,18951,7.38,73230.3,-0.05,-32.63,-32.79,0,*5A
1489230163.47,18952,7.38,73226.0,-0.05,-31.79,-31.95,0,*50
1489230164.71,18953,7.38,73226.8,-0.01,-31.57,-31.79,0,*5B
1489230165.98,18954,7.38,73228.5,-0.01,-31.57,-31.73,0,*56
1489230167.18,18955,7.38,73226.8,0.05,-31.33,-31.45,0,*79
1489230168.42,18956,7.38,73228.5,0.05,-30.77,-30.77,0,*7B
1489230169.67,18957,7.38,73226.8,0.07,-31.05,-31.23,0,*7C
1489230170.88,18958,7.38,73230.3,0.09,-31.57,-31.67,0,*7A
1489230172.15,18959,7.38,73230.5,0.11,-31.57,-31.73,0,*47
1489230173.42,18960,7.38,73234.3,0.13,-31.57,-31.73,0,*4F
1489230174.69,18961,7.38,73234.5,0.17,-31.73,-31.91,0,*40
1489230175.94,18962,7.38,73236.5,0.15,-31.85,-32.19,0,*4B
1489230177.18,18963,7.38,73238.8,0.17,-32.97,-33.15,0,*45
1489230178.44,18964,7.38,73236.8,0.15,-34.53,-34.95,0,*41
1489230179.7,18965,7.38,73238.5,0.17,-33.43,-33.77,0,*4F
1489230180.93,18966,7.38,73236.3,0.17,-33.89,-34.41,0,*48
1489230182.18,18967,7.38,73234.8,0.17,-34.71,-35.07,0,*4A
1489230183.39,18968,7.38,73238.8,0.15,-34.89,-35.29,0,*4C
1489230184.64,18969,7.38,73236.0,0.13,-35.41,-35.89,0,*44
1489230185.88,18970,7.38,73240.0,0.11,-36.91,-37.45,0,*42
1489230187.09,18971,7.38,73242.3,0.09,-35.77,-36.13,0,*73
1489230188.31,18972,7.38,73246.5,0.07,-36.97,-37.45,0,*71
1489230189.54,18973,7.38,73244.0,0.07,-37.57,-38.11,0,*73
1489230190.75,18974,7.38,73242.8,0.01,-38.35,-39.15,0,*7C
1489230191.99,18975,7.38,73244.0,-0.03,-38.67,-39.23,0,*50
1489230193.21,18976,7.38,73242.8,-0.07,-38.35,-38.91,0,*58
1489230194.43,18977,7.38,73236.3,-0.11,-38.55,-39.15,0,*65
1489230195.63,18978,7.38,73246.0,-0.11,-38.55,-39.09,0,*67
1489230196.88,18979,7.38,73244.8,-0.15,-38.23,-38.67,0,*6A
1489230198.09,18980,7.38,73248.3,-0.15,-38.05,-38.61,0,*6E
1489230199.32,18981,7.38,73252.3,-0.21,-37.87,-38.29,0,*61
1489230200.57,18982,7.38,73252.5,-0.23,-38.61,-39.15,0,*69
1489230201.8,18983,7.38,73248.0,-0.25,-39.09,-39.71,0,*63
1489230203.02,18984,7.38,73248.8,-0.29,-38.97,-39.41,0,*6D
1489230204.25,18985,7.38,73244.5,-0.31,-38.17,-38.85,0,*64
1489230205.46,18986,7.38,73240.8,-0.33,-37.75,-38.17,0,*65
1489230206.72,18987,7.38,73242.5,-0.35,-37.81,-38.35,0,*69
1489230207.92,18988,7.38,73242.3,-0.37,-38.05,-38.61,0,*66
1489230209.2,18989,7.38,73236.5,-0.39,-38.29,-38.67,0,*61
1489230210.45,18990,7.38,73232.0,-0.43,-38.55,-39.03,0,*6C
1489230211.69,18991,7.38,73228.8,-0.43,-38.91,-39.47,0,*65
1489230212.95,18992,7.38,73232.8,-0.47,-39.79,-40.65,0,*6B
1489230214.21,18993,7.38,73226.0,-0.51,-40.41,-41.03,0,*69
1489230215.44,18994,7.38,73220.8,-0.55,-39.91,-40.65,0,*68
1489230216.67,18995,7.38,73222.3,-0.57,-41.03,-41.55,0,*6D
1489230217.92,18996,7.38,73218.5,-0.61,-40.79,-41.35,0,*61
1489230219.17,18997,7.38,73216.3,-0.67,-41.41,-42.19,0,*61
1489230220.37,18998,7.38,73214.8,-0.69,-41.49,-42.25,0,*67
1489230221.63,18999,7.38,73208.5,-0.75,-41.41,-42.19,0,*6C
1489230222.88,19000,7.38,73208.5,-0.77,-41.23,-41.81,0,*60
1489230224.11,19001,7.38,73206.3,-0.81,-41.23,-42.13,0,*60
1489230225.38,19002,7.38,73206.0,-0.85,-41.55,-42.19,0,*6C
1489230226.61,19003,7.38,73214.3,-0.91,-41.55,-42.25,0,*67
1489230227.86,19004,7.38,73214.3,-0.95,-41.93,-42.83,0,*62
1489230229.14,19005,7.38,73216.8,-0.97,-41.55,-42.19,0,*68
1489230230.38,19006,7.38,73216.8,-1.01,-41.03,-41.73,0,*59
1489230231.64,19007,7.38,73210.8,-1.03,-42.05,-42.83,0,*53
1489230232.87,19008,7.38,73208.8,-1.07,-41.99,-42.69,0,*5A
1489230234.13,19009,7.38,73208.5,-1.13,-41.17,-41.93,0,*5E
1489230235.37,19010,7.38,73208.5,-1.13,-39.65,-40.15,0,*53
1489230236.57,19011,7.38,73208.0,-1.17,-40.03,-40.65,0,*5F
1489230237.79,19012,7.38,73206.8,-1.17,-40.59,-41.29,0,*5A
1489230239.01,19013,7.38,73206.5,-1.21,-41.11,-41.93,0,*52
1489230240.24,19014,7.38,73202.0,-1.25,-41.81,-42.37,0,*55
1489230241.47,19015,7.38,73204.3,-1.29,-41.81,-42.51,0,*58
1489230242.71,19016,7.38,73204.5,-1.31,-41.87,-42.51,0,*54
1489230243.94,19017,7.38,73206.5,-1.35,-40.91,-41.49,0,*5D
1489230245.17,19018,7.38,73202.3,-1.41,-40.53,-41.35,0,*54
1489230246.4,19019,7.38,73196.0,-1.41,-42.05,-42.63,0,*54
1489230247.64,19020,7.38,73188.8,-1.45,-40.91,-41.55,0,*53
1489230248.9,19021,7.38,73194.3,-1.47,-40.03,-40.79,0,*54
1489230250.15,19022,7.38,73194.0,-1.49,-41.17,-41.81,0,*5B
1489230251.44,19023,7.38,73196.5,-1.53,-41.35,-42.05,0,*5E
1489230252.73,19024,7.38,73202.3,-1.53,-40.41,-40.97,0,*52
1489230253.97,19025,7.38,73206.8,-1.59,-40.09,-40.65,0,*58
1489230255.22,19026,7.38,73206.3,-1.59,-39.71,-40.35,0,*5F
1489230256.46,19027,7.38,73208.0,-1.59,-39.09,-39.71,0,*5F
1489230257.69,19028,7.38,73208.5,-1.61,-38.17,-38.73,0,*56
1489230258.97,19029,7.38,73210.3,-1.61,-38.91,-39.41,0,*59
1489230260.24,19030,7.38,73202.5,-1.63,-39.15,-39.79,0,*55
1489230261.51,19031,7.38,73200.8,-1.63,-39.79,-40.21,0,*5D
1489230262.72,19032,7.38,73206.5,-1.63,-38.05,-38.73,0,*5C
1489230263.93,19033,7.38,73210.3,-1.63,-36.07,-36.31,0,*59
1489230265.22,19034,7.38,73210.0,-1.61,-35.41,-35.95,0,*50
1489230266.44,19035,7.38,73210.5,-1.59,-35.13,-35.47,0,*52
1489230267.67,19036,7.38,73208.3,-1.55,-35.29,-35.53,0,*51
1489230268.91,19037,7.38,73206.8,-1.55,-34.25,-34.53,0,*5C
1489230270.14,19038,7.38,73218.8,-1.51,-35.83,-36.19,0,*56
1489230271.4,19039,7.38,73212.0,-1.51,-36.37,-36.91,0,*5B
1489230272.61,19040,7.38,73212.0,-1.51,-36.01,-36.31,0,*5A
1489230273.86,19041,7.38,73214.0,-1.47,-35.13,-35.53,0,*5B
1489230275.1,19042,7.38,73214.3,-1.49,-34.77,-35.13,0,*51
1489230276.34,19043,7.38,73212.3,-1.45,-35.83,-36.31,0,*55
1489230277.58,19044,7.38,73218.8,-1.43,-36.73,-37.27,0,*5E
1489230278.84,19045,7.38,73218.3,-1.45,-36.25,-36.79,0,*50
1489230280.08,19046,7.38,73216.8,-1.45,-37.33,-37.63,0,*5F
1489230281.29,19047,7.38,73216.8,-1.45,-36.01,-36.31,0,*58
1489230282.56,19048,7.38,73218.5,-1.43,-35.07,-35.29,0,*5E
1489230283.82,19049,7.38,73218.0,-1.43,-35.59,-36.13,0,*5E
1489230285.06,19050,7.38,73224.3,-1.41,-36.01,-36.25,0,*5F
1489230286.27,19051,7.38,73222.3,-1.41,-36.73,-37.15,0,*59
1489230287.52,19052,7.38,73224.0,-1.41,-36.25,-36.79,0,*52
1489230288.78,19053,7.38,73220.8,-1.41,-37.51,-38.11,0,*51
1489230290.04,19054,7.38,73220.8,-1.41,-37.09,-37.51,0,*50
1489230291.27,19055,7.38,73226.0,-1.41,-36.73,-37.09,0,*50
1489230292.5,19056,7.38,73228.3,-1.41,-36.19,-36.61,0,*50
1489230293.76,19057,7.38,73226.3,-1.39,-35.23,-35.59,0,*5C
1489230295.02,19058,7.38,73226.0,-1.39,-36.55,-37.09,0,*56
1489230296.28,19059,7.38,73222.8,-1.39,-35.59,-35.95,0,*5F
1489230297.54,19060,7.38,73226.3,-1.39,-36.13,-36.67,0,*56
1489230298.8,19061,7.38,73224.8,-1.39,-37.03,-37.63,0,*52
1489230300.01,19062,7.38,73222.5,-1.41,-36.97,-37.57,0,*55
1489230301.27,19063,7.38,73220.8,-1.39,-37.39,-37.87,0,*53
1489230302.54,19064,7.38,73222.0,-1.43,-37.09,-37.57,0,*57
1489230303.77,19065,7.38,73220.8,-1.41,-37.57,-38.23,0,*53
1489230305.0,19066,7.38,73222.5,-1.41,-38.11,-38.85,0,*51
1489230306.26,19067,7.38,73220.5,-1.45,-38.79,-39.53,0,*50
1489230307.48,19068,7.38,73222.0,-1.45,-38.97,-39.53,0,*5F
1489230308.74,19069,7.38,73220.8,-1.47,-38.61,-39.15,0,*57
1489230310.03,19070,7.38,73220.8,-1.47,-39.23,-39.59,0,*50
1489230311.31,19071,7.38,73222.0,-1.49,-39.23,-39.71,0,*55
1489230312.58,19072,7.38,73220.0,-1.53,-39.03,-39.65,0,*5A
1489230313.81,19073,7.38,73218.5,-1.53,-39.47,-40.03,0,*55
1489230315.02,19074,7.38,73218.5,-1.59,-39.35,-40.03,0,*5D
1489230316.26,19075,7.38,73220.3,-1.59,-39.47,-40.09,0,*53
1489230317.53,19076,7.38,73220.5,-1.63,-39.23,-39.79,0,*52
1489230318.79,19077,7.38,73218.0,-1.63,-39.41,-39.97,0,*57
1489230320.06,19078,7.38,73224.0,-1.65,-39.59,-40.15,0,*53
1489230321.29,19079,7.38,73220.3,-1.67,-38.17,-38.79,0,*5E
1489230322.5,19080,7.38,73216.3,-1.67,-37.33,-37.75,0,*52
1489230323.74,19081,7.38,73216.8,-1.67,-36.79,-37.15,0,*5A
1489230324.99,19082,7.38,73218.0,-1.67,-35.41,-35.65,0,*54
1489230326.25,19083,7.38,73220.5,-1.65,-35.65,-36.01,0,*50
1489230327.49,19084,7.38,73218.5,-1.67,-35.53,-36.01,0,*50
1489230328.75,19085,7.38,73220.5,-1.61,-35.41,-35.89,0,*57
1489230330.04,19086,7.38,73220.5,-1.61,-36.13,-36.49,0,*5F
1489230331.3,19087,7.38,73222.0,-1.61,-36.43,-36.91,0,*5E
1489230332.51,19088,7.38,73216.5,-1.63,-36.85,-37.45,0,*51
1489230333.8,19089,7.38,73220.3,-1.61,-36.91,-37.39,0,*5C
1489230335.06,19090,7.38,73218.0,-1.61,-36.55,-37.09,0,*5F
1489230336.33,19091,7.38,73216.8,-1.61,-34.59,-34.83,0,*51
1489230337.56,19092,7.38,73222.0,-1.55,-33.77,-34.07,0,*52
1489230338.82,19093,7.38,73222.3,-1.55,-35.23,-35.53,0,*54
1489230340.05,19094,7.38,73220.8,-1.55,-35.65,-36.07,0,*53
1489230341.3,19095,7.38,73218.0,-1.53,-36.19,-36.79,0,*55
1489230342.56,19096,7.38,73222.8,-1.53,-36.79,-37.33,0,*5F
1489230343.82,19097,7.38,73222.3,-1.53,-37.63,-37.87,0,*5B
1489230345.07,19098,7.38,73222.0,-1.55,-37.21,-37.57,0,*59
1489230346.3,19099,7.38,73220.0,-1.59,-37.69,-38.17,0,*53
1489230347.56,19100,7.38,73222.8,-1.59,-38.11,-38.67,0,*55
1489230348.78,19101,7.38,73222.5,-1.59,-37.75,-38.35,0,*5E
1489230350.07,19102,7.38,73222.3,-1.61,-37.39,-37.99,0,*57
1489230351.33,19103,7.38,73224.3,-1.63,-38.79,-39.41,0,*54
1489230352.58,19104,7.38,73222.8,-1.63,-38.91,-39.41,0,*55
1489230353.8,19105,7.38,73220.8,-1.67,-37.87,-38.35,0,*5A
1489230355.06,19106,7.38,73226.8,-1.67,-37.93,-38.49,0,*57
1489230356.27,19107,7.38,73222.0,-1.67,-38.73,-39.47,0,*58
1489230357.51,19108,7.38,73220.8,-1.71,-39.09,-39.59,0,*53
1489230358.76,19109,7.38,73220.0,-1.73,-39.35,-39.97,0,*5D
1489230360.02,19110,7.38,73222.3,-1.75,-38.79,-39.03,0,*57
1489230361.26,19111,7.38,73220.0,-1.75,-39.29,-40.15,0,*5B
1489230362.56,19112,7.38,73222.0,-1.77,-39.59,-40.21,0,*5A
1489230363.79,19113,7.38,73222.0,-1.81,-39.35,-40.09,0,*52
1489230365.02,19114,7.38,73216.5,-1.81,-39.35,-39.79,0,*5C
1489230366.27,19115,7.38,73218.3,-1.85,-38.79,-39.23,0,*5F
1489230367.51,19116,7.38,73216.8,-1.85,-39.65,-40.21,0,*5C
1489230368.77,19117,7.38,73214.0,-1.89,-39.71,-40.21,0,*54
1489230370.0,19118,7.38,73212.8,-1.89,-39.41,-39.85,0,*58
1489230371.23,19119,7.38,73212.3,-1.91,-38.43,-38.97,0,*51
1489230372.46,19120,7.38,73216.8,-1.93,-39.79,-40.47,0,*53
1489230373.72,19121,7.38,73214.3,-1.95,-39.97,-40.53,0,*51
1489230374.93,19122,7.38,73214.8,-1.97,-40.03,-40.53,0,*53
1489230376.16,19123,7.38,73216.0,-1.97,-39.59,-40.15,0,*51
1489230377.4,19124,7.38,73212.3,-2.01,-39.65,-40.09,0,*58
1489230378.63,19125,7.38,73212.0,-2.01,-39.29,-39.85,0,*5B
1489230379.85,19126,7.38,73210.0,-2.01,-38.55,-39.23,0,*5E
1489230381.08,19127,7.38,73212.0,-2.05,-39.35,-39.97,0,*53
1489230382.38,19128,7.38,73214.8,-2.07,-39.15,-39.79,0,*5C
1489230383.63,19129,7.38,73210.5,-2.07,-38.97,-39.53,0,*5E
1489230384.83,19130,7.38,73208.3,-2.09,-38.05,-38.43,0,*53
1489230386.05,19131,7.38,73214.3,-2.09,-38.67,-39.35,0,*56
1489230387.3,19132,7.38,73214.8,-2.11,-38.97,-39.53,0,*53
1489230388.55,19133,7.38,73208.3,-2.13,-38.73,-39.29,0,*57
1489230389.78,19134,7.38,73210.3,-2.13,-38.61,-39.09,0,*51
1489230391.02,19135,7.38,73214.8,-2.15,-38.17,-38.67,0,*5E
1489230392.29,19136,7.38,73212.3,-2.15,-37.81,-38.49,0,*51
1489230393.52,19137,7.38,73216.0,-2.13,-38.05,-38.43,0,*5F
1489230394.78,19138,7.38,73208.5,-2.15,-38.11,-38.91,0,*5C
1489230396.04,19139,7.38,73208.0,-2.15,-38.29,-38.79,0,*50
1489230397.29,19140,7.38,73208.5,-2.17,-37.57,-37.93,0,*51
1489230398.53,19141,7.38,73208.0,-2.17,-36.31,-36.67,0,*5B
1489230399.79,19142,7.38,73214.5,-2.13,-34.65,-34.89,0,*5D
1489230401.07,19143,7.38,73216.8,-2.13,-33.77,-34.01,0,*58
1489230402.27,19144,7.38,73212.0,-2.09,-33.95,-34.25,0,*5E
1489230403.53,19145,7.38,73216.3,-2.07,-34.35,-34.77,0,*5B
1489230404.77,19146,7.38,73208.5,-2.05,-34.59,-34.83,0,*5B
1489230406.04,19147,7.38,73212.0,-2.05,-33.73,-34.01,0,*5F
1489230407.3,19148,7.38,73208.5,-1.99,-33.09,-33.37,0,*59
1489230408.55,19149,7.38,73216.8,-1.95,-32.85,-33.15,0,*51
1489230409.79,19150,7.38,73214.0,-1.95,-33.03,-33.37,0,*56
1489230411.04,19151,7.38,73216.8,-1.91,-32.91,-33.09,0,*54
1489230412.32,19152,7.38,73214.0,-1.87,-32.79,-32.97,0,*50
1489230413.58,19153,7.38,73214.3,-1.83,-32.75,-33.15,0,*52
1489230414.79,19154,7.38,73216.3,-1.81,-33.83,-34.07,0,*5B
1489230416.08,19155,7.38,73216.8,-1.77,-32.85,-33.27,0,*51
1489230417.35,19156,7.38,73220.3,-1.73,-32.57,-32.75,0,*5F
1489230418.59,19157,7.38,73222.5,-1.73,-32.29,-32.57,0,*57
1489230419.83,19158,7.38,73220.5,-1.69,-32.57,-32.91,0,*50
1489230421.06,19159,7.38,73224.0,-1.67,-33.15,-33.49,0,*5C
1489230422.32,19160,7.38,73222.0,-1.65,-34.13,-34.35,0,*59
1489230423.58,19161,7.38,73220.0,-1.65,-35.23,-35.77,0,*5D
1489230424.82,19162,7.38,73216.3,-1.65,-38.05,-38.61,0,*5D
1489230426.06,19163,7.38,73216.5,-1.67,-37.99,-38.55,0,*53
1489230427.28,19164,7.38,73218.3,-1.67,-35.71,-35.89,0,*5C
1489230428.51,19165,7.38,73218.0,-1.67,-34.53,-34.89,0,*5D
1489230429.77,19166,7.38,73214.5,-1.67,-35.83,-36.37,0,*55
1489230431.0,19167,7.38,73208.0,-1.67,-35.53,-35.71,0,*58
1489230432.28,19168,7.38,73208.8,-1.65,-33.43,-33.77,0,*52
1489230433.56,19169,7.38,73208.5,-1.65,-32.63,-32.97,0,*5F
1489230434.85,19170,7.38,73222.3,-1.61,-32.63,-32.97,0,*53
1489230436.11,19171,7.38,73220.5,-1.61,-32.63,-32.91,0,*54
1489230437.35,19172,7.38,73216.8,-1.55,-33.43,-33.67,0,*5B
1489230438.6,19173,7.38,73222.3,-1.51,-33.43,-33.77,0,*5F
1489230439.86,19174,7.38,73224.5,-1.53,-35.01,-35.23,0,*5D
1489230441.13,19175,7.38,73220.5,-1.53,-35.95,-36.31,0,*51
1489230442.38,19176,7.38,73222.8,-1.53,-35.83,-36.19,0,*5F
1489230443.6,19177,7.38,73220.3,-1.51,-35.01,-35.29,0,*56
1489230444.86,19178,7.38,73222.5,-1.53,-33.61,-33.95,0,*5A
1489230446.11,19179,7.38,73222.3,-1.51,-33.61,-33.89,0,*54
1489230447.38,19180,7.38,73220.0,-1.47,-34.95,-35.13,0,*5C
1489230448.61,19181,7.38,73220.0,-1.49,-33.83,-33.95,0,*5B
1489230449.89,19182,7.38,73212.5,-1.47,-32.63,-32.97,0,*5A
1489230451.15,19183,7.38,73214.0,-1.47,-32.07,-32.23,0,*56
1489230452.44,19184,7.38,73220.8,-1.43,-32.63,-32.75,0,*54
1489230453.68,19185,7.38,73222.8,-1.39,-32.57,-32.69,0,*52
1489230454.94,19186,7.38,73222.8,-1.39,-32.45,-32.69,0,*52
1489230456.22,19187,7.38,73226.5,-1.31,-33.43,-33.73,0,*56
1489230457.47,19188,7.38,73222.5,-1.31,-33.61,-33.83,0,*56
1489230458.72,19189,7.38,73226.3,-1.31,-32.51,-32.63,0,*5A
1489230459.98,19190,7.38,73224.0,-1.27,-32.91,-33.27,0,*58
1489230461.24,19191,7.38,73222.8,-1.27,-32.29,-32.51,0,*5A
1489230462.46,19192,7.38,73222.0,-1.25,-33.55,-33.77,0,*54
1489230463.72,19193,7.38,73220.5,-1.23,-32.85,-33.15,0,*5B
1489230465.0,19194,7.38,73222.3,-1.23,-32.29,-32.45,0,*5E
1489230466.26,19195,7.38,73222.0,-1.19,-32.01,-32.19,0,*55
1489230467.5,19196,7.38,73220.8,-1.19,-32.51,-32.69,0,*54
1489230468.74,19197,7.38,73224.5,-1.15,-32.45,-32.69,0,*5C
1489230469.99,19198,7.38,73226.0,-1.15,-32.63,-32.97,0,*56
1489230471.26,19199,7.38,73228.0,-1.13,-32.29,-32.51,0,*55
1489230472.52,19200,7.38,73230.3,-1.11,-32.75,-32.97,0,*57
1489230473.73,19201,7.38,73224.0,-1.11,-33.37,-33.67,0,*5F
1489230474.99,19202,7.38,73220.0,-1.11,-32.75,-32.97,0,*55
1489230476.2,19203,7.38,73222.5,-1.07,-32.39,-32.57,0,*57
1489230477.42,19204,7.38,73222.8,-1.05,-32.35,-32.57,0,*5E
1489230478.63,19205,7.38,73220.8,-1.03,-32.13,-32.23,0,*5E
1489230479.86,19206,7.38,73220.0,-0.99,-31.95,-32.13,0,*61
1489230481.08,19207,7.38,73220.5,-0.99,-31.91,-32.13,0,*64
1489230482.33,19208,7.38,73222.3,-0.97,-31.51,-31.67,0,*69
1489230483.59,19209,7.38,73222.0,-0.93,-31.79,-32.07,0,*63
1489230484.81,19210,7.38,73220.8,-0.93,-32.35,-32.39,0,*6D
1489230486.06,19211,7.38,73224.0,-0.89,-33.03,-33.09,0,*61
1489230487.31,19212,7.38,73222.8,-0.89,-31.95,-32.01,0,*66
1489230488.56,19213,7.38,73226.0,-0.89,-32.01,-32.29,0,*63
1489230489.83,19214,7.38,73226.3,-0.89,-32.63,-32.97,0,*65
1489230491.11,19215,7.38,73222.0,-0.83,-31.91,-32.19,0,*66
1489230492.32,19216,7.38,73228.8,-0.81,-32.01,-32.23,0,*64
1489230493.6,19217,7.38,73228.8,-0.79,-32.45,-32.79,0,*6D
1489230494.86,19218,7.38,73228.3,-0.79,-32.29,-32.51,0,*62
1489230496.11,19219,7.38,73228.8,-0.79,-33.03,-33.09,0,*66
1489230497.34,19220,7.38,73228.0,-0.77,-33.03,-33.27,0,*6E
1489230498.57,19221,7.38,73230.3,-0.75,-33.21,-33.55,0,*68
1489230499.82,19222,7.38,73230.8,-0.75,-32.97,-33.15,0,*63
1489230501.07,19223,7.38,73230.5,-0.77,-34.19,-34.53,0,*65
1489230502.3,19224,7.38,73228.5,-0.75,-34.41,-34.59,0,*67
1489230503.55,19225,7.38,73224.3,-0.75,-33.31,-33.55,0,*6D
1489230504.8,19226,7.38,73226.0,-0.75,-32.97,-33.15,0,*67
1489230506.07,19227,7.38,73226.3,-0.75,-32.29,-32.63,0,*63